sat.trackr.live / text

‹ back to catalog

STARLINK-2506

NORAD 48315 · 2021-036AR

PAYLOAD ACTIVE UNKNOWN

§ Identity

Operator
Country
US
Launch date
2021-04-29
Launch site
AFETR
Launch vehicle
Mass (kg)
RCS (m²)

Purposes: comms

External: N2YO · Heavens-Above · Gunter

§ Orbital elements

Epoch: 2026-09-03T18:51:53.278848Z

Period
94.01 min
Inclination
53.1588°
Eccentricity
0.0001101
Mean motion
15.31718488 rev/d
Perigee alt
469.9 km
Apogee alt
471.4 km
Semi-major
6,848.8 km
B*
1.8045e-4
RAAN
350.1339°
Arg perigee
82.5661°
Mean anomaly
277.5466°
Rev number
29,534

§ Raw data

STARLINK-25061 48315U 21036AR  26246.78603332  .00005242  00000+0  18045-3 0  99982 48315  53.1588 350.1339 0001101  82.5661 277.5466 15.31718488295344

JSON: /api/v1/satellites/48315 · /tle

For live sub-satellite position, see the globe view (requires WebGL).

§ Visibility from observer

Set your observer location to see the next 7 days of passes ≥ 10°. The values pass through the URL so the page stays shareable.

No JS? Fill the form by hand. The geolocation button needs JavaScript.